Location: Gull Harbor
(47.1000°N, 122.9000°W)
Time: 17:15:43
(UTC-07:00)

N. Korean satellite - Visible Passes

Search period start: 15 October 2018 00:00
Search period end: 25 October 2018 00:00
Orbit: 459 x 510 km, 97.2° (Epoch: 15 October)

Date Brightness Start Highest point End Pass type
(mag) Time Alt. Az. Time Alt. Az. Time Alt. Az.
15 Oct 10.3 06:32:18 10° ENE 06:34:13 14° E 06:36:06 10° ESE visible
16 Oct 10.2 19:53:41 10° WSW 19:55:39 14° W 19:57:39 10° WNW visible
17 Oct 9.3 19:27:56 10° SSW 19:31:03 25° W 19:34:12 10° NW visible
18 Oct 9.6 06:51:39 10° NE 06:54:36 22° E 06:57:29 10° SSE visible
18 Oct 7.9 19:02:55 10° S 19:06:30 47° W 19:10:09 10° NNW visible
19 Oct 10.4 06:28:27 10° ENE 06:29:57 12° E 06:31:25 10° ESE visible
20 Oct 10.1 19:49:08 10° SW 19:51:24 15° W 19:53:40 10° NW visible
21 Oct 9.1 19:23:33 10° SSW 19:26:47 27° W 19:30:03 10° NW visible
22 Oct 9.8 06:47:33 10° NE 06:50:18 20° E 06:53:00 10° SE visible
22 Oct 7.6 18:58:36 10° S 19:02:15 53° W 19:05:56 10° NNW visible
23 Oct 10.5 06:24:47 10° ENE 06:25:37 11° E 06:26:28 10° ESE visible
24 Oct 9.9 19:44:36 10° SW 19:47:04 17° W 19:49:34 10° NW visible
